This is the latest recevied weather packets stored in our database for station/object W5CDN. If no packets are shown the sender has not sent any weather packets the latest 10 day(s).
| Time | Temp. | Humidity | Pressure | Rain* | Wind** | Luminosity | Snow |
|---|---|---|---|---|---|---|---|
| 1787959436 | 36.11° C | 41% | 1012.7 hPa | 0 mm | - | - | - |
| 1787959136 | 36.11° C | 41% | 1012.9 hPa | 0 mm | - | - | - |
| 1787958836 | 36.11° C | 42% | 1012.8 hPa | 0 mm | - | - | - |
| 1787958536 | 36.67° C | 41% | 1012.7 hPa | 0 mm | - | - | - |
| 1787958236 | 36.11° C | 41% | 1013.1 hPa | 0 mm | - | - | - |
| 1787957936 | 36.67° C | 41% | 1012.8 hPa | 0 mm | - | - | - |
| 1787957636 | 37.22° C | 39% | 1012.7 hPa | 0 mm | - | - | - |
| 1787957336 | 37.78° C | 37% | 1012.6 hPa | 0 mm | - | - | - |
| 1787957036 | 37.78° C | 35% | 1012.6 hPa | 0 mm | - | - | - |
| 1787956736 | 37.22° C | 36% | 1012.5 hPa | 0 mm | - | - | - |
| 1787956436 | 37.78° C | 36% | 1012.6 hPa | 0 mm | - | - | - |
| 1787956136 | 36.67° C | 37% | 1012.5 hPa | 0 mm | - | - | - |
| 1787955836 | 37.78° C | 37% | 1012.7 hPa | 0 mm | - | - | - |
| 1787955536 | 37.22° C | 36% | 1012.6 hPa | 0 mm | - | - | - |
| 1787955236 | 37.22° C | 37% | 1012.8 hPa | 0 mm | - | - | - |
| 1787954936 | 36.67° C | 37% | 1012.8 hPa | 0 mm | - | - | - |
| 1787954636 | 36.67° C | 37% | 1012.8 hPa | 0 mm | - | - | - |
| 1787954336 | 37.22° C | 37% | 1012.9 hPa | 0 mm | - | - | - |
| 1787954036 | 36.67° C | 38% | 1012.9 hPa | 0 mm | - | - | - |
| 1787953736 | 37.22° C | 37% | 1012.9 hPa | 0 mm | - | - | - |
| 1787953436 | 37.78° C | 37% | 1013 hPa | 0 mm | - | - | - |
| 1787953136 | 37.22° C | 37% | 1013 hPa | 0 mm | - | - | - |
| 1787952836 | 36.67° C | 38% | 1012.8 hPa | 0 mm | - | - | - |
| 1787952536 | 36.67° C | 38% | 1013 hPa | 0 mm | - | - | - |
| 1787952236 | 37.78° C | 38% | 1013 hPa | 0 mm | - | - | - |
* Rain latest hour (hover to see other rain measurements)
** Current wind speed in m/s (hover to see current wind gust speed)